Wind_Speed
47 44 42 42 43 42 39 37 36 35 33 31 31 31 30 26 24 22 18 15 12 12 12 9 11 11 10 8 7 7 8 11 7 7 11 7 4 8 6 3 2 2 2
37 46 44 44 46 44 44 40 39 38 36 32 31 33 32 29 27 24 21 18 14 12 13 11 13 13 12 13 10 9 10 8 9 6 7 10 7 9 11 6 2 6 4
43 49 50 48 47 49 46 44 42 42 39 35 32 31 28 30 33 30 25 21 18 16 16 14 15 14 13 13 12 10 8 11 8 7 7 5 5 14 13 9 6 5 4
40 47 50 50 48 47 46 46 45 44 42 39 37 34 31 30 29 32 30 24 20 20 19 17 18 14 13 13 13 11 6 12 12 8 8 9 9 11 8 12 12 7 5
46 46 53 53 51 47 45 45 46 44 44 44 40 36 34 30 24 25 29 26 22 22 23 21 21 16 14 13 13 11 9 13 14 12 10 8 9 12 11 13 16 13 10
48 53 55 54 52 53 49 45 47 47 47 46 43 40 37 33 29 27 29 27 24 24 23 23 21 16 15 16 12 11 11 11 16 15 13 10 9 12 12 12 15 15 12
47 53 50 49 48 56 55 52 51 50 49 48 45 42 39 34 30 30 28 30 27 27 26 26 23 17 13 13 11 12 12 12 11 15 13 13 11 9 9 8 9 8 8
47 53 56 60 61 60 59 58 56 54 53 51 48 43 40 38 32 31 31 29 32 28 25 24 23 19 16 16 14 12 14 13 14 16 16 15 14 12 11 10 10 10 10
49 53 59 58 60 57 62 62 61 58 56 53 50 47 43 41 36 30 30 30 34 31 27 25 24 22 19 18 17 14 15 14 13 14 17 18 18 16 15 14 13 14 14
45 52 52 59 62 61 63 62 62 61 59 56 53 50 45 43 39 31 30 32 35 35 31 28 26 25 21 19 19 16 17 18 14 14 17 19 19 20 18 16 16 16 13
46 53 56 57 56 55 56 61 61 62 62 60 56 53 48 45 43 36 32 35 36 37 33 30 28 27 24 22 22 19 18 20 19 16 17 16 17 18 22 20 19 18 16
50 55 58 51 48 51 53 58 59 60 61 60 58 54 48 47 46 41 36 37 38 38 37 31 30 29 28 25 24 23 22 21 21 21 19 19 18 18 18 21 23 20 19
36 36 36 38 46 49 49 54 57 59 59 56 58 57 52 49 48 44 39 38 41 40 40 38 33 34 32 29 27 26 26 25 22 22 23 20 20 19 18 19 22 22 21
32 39 43 35 41 47 50 53 54 55 57 56 56 56 55 47 48 46 41 41 41 43 42 41 40 35 33 31 29 29 29 28 28 27 25 24 23 21 20 19 19 21 22
34 41 43 47 45 41 48 52 51 51 54 56 56 56 55 48 46 49 45 42 42 43 43 43 41 40 36 34 33 32 32 31 32 33 28 25 25 24 23 22 21 20 21
40 49 53 56 39 39 49 48 51 52 52 53 55 55 55 51 49 50 48 45 44 43 44 44 44 43 40 40 38 37 36 33 34 35 30 27 25 26 25 23 22 22 20
36 42 49 57 49 51 52 53 54 55 52 51 53 55 56 53 52 51 50 48 47 44 43 43 42 42 41 39 37 36 35 33 33 31 28 27 25 26 26 23 21 22 24
24 38 41 47 52 51 47 45 48 57 56 53 52 53 55 54 53 53 52 50 49 47 43 41 41 38 37 36 34 31 33 32 27 24 24 23 23 25 25 24 23 23 23
30 24 32 43 49 48 45 47 49 55 55 55 53 54 55 56 54 54 53 53 51 47 44 39 35 33 33 28 25 28 33 32 27 25 19 18 20 20 22 23 24 23 21
28 26 18 21 35 46 48 49 50 52 56 57 55 54 55 56 56 53 52 52 51 47 42 34 31 29 25 17 19 19 25 28 26 19 19 20 19 19 21 23 22 23 19
24 21 23 23 21 30 45 48 49 51 53 54 56 55 54 55 55 54 52 50 49 42 36 33 30 25 20 20 20 22 23 26 16 16 15 16 18 21 24 24 18 16 13
4 11 23 21 24 30 34 42 47 41 47 54 56 54 54 54 53 53 51 47 42 38 38 36 29 26 27 28 27 24 22 19 17 16 16 17 18 18 16 12 12 15 15
2 3 3 4 11 25 30 40 42 46 50 52 54 55 51 50 50 52 52 46 40 41 43 38 33 34 31 24 21 18 17 19 17 17 18 17 15 12 11 10 11 14 15
6 9 11 12 11 9 15 27 38 44 51 54 54 54 55 52 49 50 51 51 44 45 42 38 38 38 27 25 19 17 20 22 23 20 18 15 12 11 10 10 12 12 13
7 6 8 13 17 18 18 16 26 36 44 49 51 53 52 49 46 43 40 41 42 40 38 36 33 33 35 29 23 23 25 24 20 18 18 16 14 13 11 12 12 12 12
11 12 12 12 16 19 22 25 27 26 30 41 46 45 47 49 46 43 41 35 33 38 28 18 12 19 19 20 23 23 20 19 18 19 17 15 14 11 12 12 12 12 12
Wind_Direction
208 209 211 209 209 214 213 214 213 212 208 204 206 209 214 215 220 221 226 230 230 236 239 261 260 275 248 249 259 249 254 290 185 181 202 194 190 187 206 200 352 6 322
209 212 216 214 212 214 216 217 217 215 211 209 211 218 221 221 225 229 230 234 228 239 242 253 258 261 249 249 254 261 281 198 179 187 195 185 184 190 195 205 179 79 59
208 214 213 217 217 218 218 218 218 217 214 211 211 216 221 228 229 226 226 228 230 240 242 248 255 257 256 249 257 262 281 203 199 208 218 184 192 190 197 210 191 130 88
209 214 212 216 217 222 224 224 220 219 216 214 214 215 216 218 222 227 227 226 228 237 240 243 248 255 259 250 254 255 257 208 206 204 204 218 216 194 192 208 207 206 225
209 208 215 216 216 218 222 223 222 220 219 217 218 218 221 225 229 220 216 222 224 229 237 244 246 248 258 249 248 250 247 213 214 221 210 209 216 219 228 217 218 223 228
213 215 216 218 220 218 220 222 222 222 220 220 221 223 224 226 228 220 219 218 224 227 233 236 244 251 250 249 240 242 235 226 226 226 223 227 231 228 224 232 227 234 245
211 217 216 212 220 220 219 222 224 223 222 222 224 227 229 234 238 228 224 222 226 227 232 234 238 245 241 235 234 231 241 239 230 226 231 228 230 235 231 234 223 221 234
210 214 218 218 216 221 223 222 225 226 225 225 226 230 233 236 238 235 232 232 229 229 233 233 239 242 244 241 241 237 238 246 238 227 234 232 233 241 246 234 234 243 244
210 214 220 220 219 217 223 224 226 228 229 230 229 230 232 235 236 234 233 237 230 229 232 235 241 243 244 241 243 241 241 244 244 236 236 239 240 242 244 242 247 258 263
211 217 217 221 225 223 225 226 228 229 232 231 232 231 233 236 237 233 232 232 227 229 231 234 237 239 242 237 235 238 238 241 243 241 239 240 239 241 245 250 253 257 251
215 215 221 223 223 222 221 228 228 229 229 232 232 232 232 235 236 232 231 227 226 224 232 234 237 234 236 232 236 240 242 244 243 243 241 243 242 242 241 249 253 253 256
225 223 223 217 218 221 221 227 229 231 232 231 231 232 233 234 236 233 231 227 225 227 228 232 232 233 236 236 239 243 247 252 252 247 247 243 242 243 244 246 250 255 261
222 218 216 214 219 223 224 228 229 232 232 232 230 230 232 232 235 233 230 229 225 226 228 230 234 234 237 241 246 252 254 256 261 256 251 254 246 251 244 252 254 255 264
214 210 210 219 226 230 230 229 231 231 232 232 232 229 231 233 233 232 230 229 226 226 227 232 236 238 239 244 248 252 255 258 262 260 254 252 250 254 259 254 255 259 261
220 215 210 221 226 233 233 232 233 230 230 231 232 232 230 231 233 234 230 230 228 229 230 232 237 240 242 246 249 254 259 262 265 261 258 257 255 254 260 264 266 267 267
221 220 215 220 218 230 232 232 235 233 231 231 234 234 231 229 231 233 231 231 233 229 230 233 235 239 243 246 251 255 258 263 264 262 261 260 263 256 257 263 264 264 269
222 216 220 216 222 229 233 233 235 236 232 233 235 234 233 229 230 232 232 231 232 233 233 232 235 238 242 246 251 254 260 264 268 268 267 263 262 256 256 260 263 264 262
229 225 214 212 220 225 235 240 234 231 232 233 233 232 232 233 230 231 233 233 232 232 234 233 234 238 243 248 252 257 262 264 265 266 269 263 256 252 256 261 263 269 267
252 239 232 232 233 236 239 237 228 228 229 231 232 236 234 233 231 231 232 233 234 233 233 234 233 235 240 244 251 259 259 259 264 261 267 253 251 246 253 257 266 271 268
247 241 235 241 237 232 237 231 230 228 230 233 237 238 236 233 233 233 232 233 234 234 233 231 227 228 234 231 238 258 256 256 262 257 260 249 241 244 252 255 266 270 263
242 239 230 236 235 235 232 230 229 231 237 237 238 235 235 235 235 234 232 232 232 230 230 227 220 213 211 213 243 248 253 259 246 253 239 231 242 251 255 263 256 259 261
210 237 237 243 233 225 230 233 232 240 240 237 234 235 235 234 233 233 231 229 228 223 219 219 209 204 203 216 222 233 227 245 232 221 221 239 247 252 250 236 251 257 257
343 326 289 268 239 236 239 235 243 242 236 232 233 235 235 238 233 229 228 224 221 218 215 209 205 203 206 208 210 213 224 209 206 211 226 233 235 223 226 226 249 239 245
328 310 298 291 301 289 240 244 256 252 241 238 238 235 232 229 228 231 233 222 214 214 216 212 205 197 206 205 221 219 203 202 208 217 225 224 214 207 211 234 244 242 248
38 2 329 316 314 316 310 290 258 245 251 249 240 231 227 219 218 216 212 213 220 222 222 220 214 208 201 201 207 196 197 202 211 215 214 207 212 212 229 230 227 223 229
21 8 359 341 331 316 307 314 302 272 251 245 231 218 211 206 204 196 193 210 221 226 223 205 239 222 221 179 182 191 195 201 205 202 208 207 207 209 198 199 213 237 247
Height
1495 1503 1508 1513 1516 1520 1523 1527 1532 1535 1539 1542 1545 1549 1551 1554 1557 1559 1561 1564 1566 1568 1569 1569 1570 1570 1570 1570 1570 1570 1570 1570 1571 1571 1573 1574 1574 1575 1575 1576 1576 1577 1577
1495 1498 1503 1508 1511 1514 1518 1522 1526 1531 1534 1538 1542 1545 1548 1551 1554 1557 1559 1561 1564 1566 1567 1568 1569 1568 1568 1568 1569 1569 1570 1569 1570 1571 1572 1573 1575 1575 1575 1576 1577 1577 1577
1485 1491 1494 1498 1504 1507 1511 1515 1519 1525 1530 1534 1538 1542 1545 1548 1550 1553 1556 1559 1561 1563 1564 1566 1567 1566 1566 1567 1568 1569 1569 1569 1571 1571 1572 1572 1572 1574 1575 1576 1577 1578 1578
1482 1484 1488 1491 1494 1498 1505 1510 1515 1520 1525 1529 1532 1535 1538 1541 1544 1548 1553 1557 1558 1559 1561 1563 1564 1565 1565 1566 1567 1567 1567 1568 1569 1570 1571 1572 1572 1573 1574 1575 1576 1577 1577
1472 1475 1478 1481 1484 1491 1496 1502 1508 1513 1519 1524 1527 1531 1534 1538 1542 1545 1549 1552 1554 1556 1558 1560 1561 1562 1563 1564 1565 1565 1565 1566 1568 1569 1570 1571 1572 1572 1572 1573 1575 1576 1577
1464 1467 1470 1476 1481 1486 1491 1495 1499 1505 1511 1516 1520 1524 1528 1532 1537 1541 1544 1547 1550 1552 1554 1556 1558 1559 1560 1561 1563 1564 1564 1565 1566 1567 1568 1569 1570 1570 1571 1572 1573 1575 1576
1455 1459 1466 1471 1475 1479 1482 1488 1492 1497 1502 1508 1513 1517 1522 1527 1531 1536 1539 1542 1545 1547 1549 1552 1554 1555 1557 1559 1560 1561 1562 1563 1563 1565 1567 1568 1569 1570 1571 1572 1572 1573 1575
1444 1448 1452 1458 1462 1466 1474 1479 1483 1489 1494 1499 1505 1511 1516 1521 1526 1530 1534 1537 1539 1542 1546 1548 1550 1552 1554 1555 1558 1558 1560 1561 1561 1562 1564 1566 1567 1568 1570 1571 1572 1573 1573
1433 1437 1442 1448 1454 1461 1463 1468 1475 1481 1486 1492 1498 1504 1510 1514 1519 1524 1528 1531 1535 1538 1540 1543 1546 1549 1551 1552 1554 1555 1557 1558 1559 1560 1562 1564 1565 1566 1567 1568 1570 1571 1571
1425 1428 1434 1437 1440 1447 1452 1460 1467 1471 1477 1484 1491 1497 1504 1509 1512 1519 1521 1524 1528 1532 1535 1538 1541 1545 1547 1549 1551 1552 1554 1555 1557 1557 1558 1559 1561 1562 1564 1565 1566 1567 1568
1414 1416 1421 1427 1434 1442 1447 1450 1458 1465 1470 1476 1484 1490 1496 1501 1506 1511 1514 1517 1521 1525 1529 1533 1536 1539 1542 1545 1547 1549 1551 1552 1553 1554 1556 1557 1559 1560 1560 1562 1563 1563 1564
1402 1407 1412 1419 1427 1432 1437 1441 1448 1454 1460 1467 1474 1481 1488 1493 1497 1503 1507 1510 1513 1518 1522 1527 1530 1533 1537 1539 1542 1544 1546 1548 1549 1550 1552 1553 1554 1555 1557 1557 1559 1560 1561
1396 1404 1413 1413 1417 1424 1428 1433 1439 1444 1451 1458 1465 1472 1478 1483 1488 1494 1500 1502 1506 1510 1515 1519 1523 1526 1530 1534 1536 1540 1542 1544 1546 1547 1548 1550 1550 1551 1552 1553 1555 1556 1557
1388 1393 1399 1407 1411 1416 1419 1423 1427 1435 1442 1448 1455 1462 1468 1474 1479 1485 1491 1494 1498 1503 1507 1510 1515 1520 1525 1529 1532 1534 1536 1539 1540 1541 1542 1545 1547 1548 1549 1549 1550 1552 1552
1386 1389 1394 1399 1403 1412 1416 1418 1421 1427 1434 1439 1445 1450 1459 1468 1473 1478 1483 1487 1491 1495 1499 1505 1509 1513 1518 1521 1525 1528 1529 1532 1533 1534 1538 1541 1542 1544 1545 1546 1547 1548 1547
1379 1380 1384 1391 1396 1399 1402 1406 1411 1417 1424 1431 1434 1440 1449 1458 1463 1468 1474 1480 1483 1487 1492 1496 1501 1505 1508 1512 1516 1518 1521 1524 1526 1528 1534 1535 1536 1538 1540 1541 1542 1543 1544
1371 1375 1380 1383 1390 1389 1390 1395 1400 1406 1414 1419 1425 1431 1437 1447 1453 1459 1465 1469 1473 1477 1481 1487 1492 1496 1500 1503 1507 1512 1515 1516 1518 1522 1525 1529 1530 1531 1534 1536 1536 1536 1537
1365 1368 1372 1376 1380 1382 1384 1387 1393 1398 1403 1409 1415 1422 1428 1434 1442 1449 1454 1460 1464 1468 1472 1478 1484 1490 1493 1497 1503 1508 1510 1512 1512 1516 1517 1520 1522 1525 1528 1530 1531 1531 1531
1358 1362 1366 1371 1374 1375 1379 1381 1386 1391 1394 1399 1406 1411 1418 1424 1430 1437 1442 1449 1455 1460 1464 1470 1478 1483 1487 1493 1499 1504 1504 1505 1507 1508 1511 1513 1516 1519 1522 1523 1524 1526 1525
1355 1357 1360 1361 1362 1367 1372 1375 1379 1383 1385 1390 1397 1402 1407 1414 1419 1425 1432 1438 1444 1451 1458 1465 1471 1477 1482 1488 1491 1494 1497 1500 1502 1503 1505 1508 1510 1513 1515 1516 1518 1518 1521
1351 1354 1354 1356 1359 1364 1368 1370 1373 1376 1379 1384 1389 1395 1399 1404 1410 1417 1422 1428 1435 1444 1453 1458 1463 1470 1474 1477 1480 1480 1489 1494 1496 1498 1500 1503 1505 1507 1508 1510 1511 1514 1516
1346 1348 1352 1355 1358 1359 1361 1364 1367 1368 1372 1378 1381 1385 1391 1394 1402 1409 1416 1423 1431 1440 1443 1449 1456 1460 1464 1467 1469 1467 1479 1487 1488 1492 1497 1499 1500 1501 1503 1504 1507 1510 1512
1345 1348 1349 1351 1354 1358 1360 1361 1360 1363 1365 1369 1372 1376 1383 1387 1394 1400 1407 1415 1422 1429 1433 1437 1444 1449 1456 1463 1467 1462 1474 1481 1484 1490 1492 1492 1493 1496 1499 1500 1503 1505 1507
1346 1347 1348 1349 1350 1352 1355 1358 1361 1363 1361 1360 1362 1365 1370 1377 1379 1391 1403 1400 1412 1419 1426 1434 1435 1438 1447 1453 1459 1459 1469 1474 1480 1483 1486 1487 1489 1491 1493 1496 1500 1501 1503
1350 1351 1351 1351 1350 1350 1350 1351 1352 1354 1358 1361 1360 1360 1363 1369 1376 1387 1398 1402 1410 1416 1420 1425 1429 1430 1436 1432 1448 1456 1462 1468 1473 1475 1480 1481 1485 1487 1489 1493 1496 1498 1500
1349 1351 1353 1353 1353 1351 1350 1350 1349 1350 1349 1351 1352 1357 1358 1361 1367 1374 1385 1398 1404 1410 1416 1423 1426 1431 1441 1441 1450 1459 1461 1465 1468 1470 1477 1479 1480 1482 1486 1489 1492 1495 1496